Salisbury, MD

9:25 AM EDT on July 21, 2017 (GMT -0400)
Salisbury-Ocean City Wicomico Regional

Weather History for KSBY - November, 2011

Change the Weather History Date:

Thursday, November 3, 2011

  Actual Average Record
Temperature  
Mean Temperature 50 °F 52 °F  
Max Temperature 65 °F 63 °F 82 °F (2016)
Min Temperature 34 °F 41 °F 23 °F (1911)
Degree Days  
Heating Degree Days 15 13  
Month to date heating degree days 47 39  
Since 1 July heating degree days 272 352  
Cooling Degree Days 0 0  
Month to date cooling degree days 0 0  
Year to date cooling degree days 1716 1150  
Moisture  
Dew Point 40 °F    
Average Humidity 68    
Maximum Humidity 92    
Minimum Humidity 43    
Precipitation  
Precipitation 0.00 in 0.11 in 1.70 in (1979)
Month to date precipitation 0.10 0.35  
Year to date precipitation 35.26 38.89  
Snow  
Snow 0.00 in 0.00 in 0.00 in (2002)
Month to date snowfall 0.0 0.0  
Since 1 July snowfall 0.0 0.0  
Snow Depth 0.00 in    
Sea Level Pressure  
Sea Level Pressure 30.13 in    
Wind  
Wind Speed 4 mph (South)    
Max Wind Speed 12 mph    
Max Gust Speed 17 mph    
Visibility 10 miles    
Events      
T = Trace of Precipitation, MM = Missing Value Source: NWS Daily Summary

Daily Weather History Graph

Daily Weather History Graph

Search for Another Location

Airport or City:

Trip Planner

Search our weather history database for the weather conditions in past years. The results will help you decide how hot, cold, wet, or windy it might be!

Date:

Astronomy

Nov. 03, 2011 Rise Set
Actual Time 7:30 AM EDT 6:00 PM EDT
Civil Twilight 7:02 AM EDT 6:28 PM EDT
Nautical Twilight 6:31 AM EDT 6:59 PM EDT
Astronomical Twilight 6:00 AM EDT 7:30 PM EDT
Moon 2:18 PM EDT (11/3) 12:45 AM EDT (11/3)
Length of Visible Light 11h 25m
Length of Day
10h 30m
First Quarter, 60% of the Moon is Illuminated
Nov 3
First Quarter
Nov 10
Full
Nov 18
Last Quarter
Nov 25
New
Dec 2
First Quarter

Hourly Weather History & Observations

Time (EDT) Temp. Windchill Dew Point Humidity Pressure Visibility Wind Dir Wind Speed Gust Speed Precip Events Conditions
12:54 AM 36.0 °F 33.3 °F 33.1 °F 89% 30.29 in 10.0 mi ESE 3.5 mph - N/A   Clear
1:54 AM 37.4 °F - 33.8 °F 87% 30.27 in 10.0 mi Calm Calm - N/A   Clear
2:54 AM 36.0 °F - 32.0 °F 86% 30.26 in 10.0 mi Calm Calm - N/A   Clear
3:54 AM 35.1 °F - 32.0 °F 89% 30.24 in 10.0 mi Calm Calm - N/A   Clear
4:54 AM 35.6 °F - 33.8 °F 93% 30.23 in 10.0 mi Calm Calm - N/A   Clear
5:54 AM 35.1 °F 31.0 °F 32.0 °F 89% 30.22 in 10.0 mi ESE 4.6 mph - N/A   Clear
6:54 AM 36.0 °F - 33.1 °F 89% 30.22 in 10.0 mi Calm Calm - N/A   Clear
7:54 AM 36.0 °F - 33.1 °F 89% 30.23 in 10.0 mi Calm Calm - N/A   Clear
8:54 AM 44.1 °F - 41.0 °F 89% 30.22 in 8.0 mi Calm Calm - N/A   Partly Cloudy
9:54 AM 53.1 °F - 48.0 °F 83% 30.21 in 10.0 mi South 4.6 mph - N/A   Clear
10:54 AM 57.9 °F - 46.0 °F 65% 30.20 in 10.0 mi SSW 10.4 mph - N/A   Clear
11:54 AM 61.0 °F - 46.9 °F 60% 30.17 in 10.0 mi WSW 6.9 mph - N/A   Clear
12:54 PM 62.1 °F - 44.1 °F 52% 30.13 in 10.0 mi South 5.8 mph - N/A   Clear
1:54 PM 64.0 °F - 44.1 °F 48% 30.09 in 10.0 mi Variable 5.8 mph - N/A   Clear
2:54 PM 63.0 °F - 41.0 °F 45% 30.06 in 10.0 mi South 9.2 mph - N/A   Clear
3:54 PM 63.0 °F - 39.0 °F 41% 30.04 in 10.0 mi SSW 10.4 mph - N/A   Clear
4:54 PM 62.1 °F - 43.0 °F 50% 30.02 in 10.0 mi SSW 5.8 mph - N/A   Clear
5:54 PM 57.0 °F - 44.1 °F 62% 30.01 in 10.0 mi SSE 5.8 mph - N/A   Clear
6:54 PM 52.0 °F - 44.1 °F 74% 30.00 in 10.0 mi SSE 5.8 mph - N/A   Clear
7:54 PM 48.9 °F - 44.1 °F 83% 29.99 in 10.0 mi SSE 4.6 mph - N/A   Clear
8:54 PM 46.0 °F - 43.0 °F 89% 30.00 in 10.0 mi Calm Calm - N/A   Clear
9:54 PM 45.0 °F - 42.1 °F 90% 30.00 in 10.0 mi Calm Calm - N/A   Clear
10:54 PM 41.0 °F - 37.9 °F 89% 29.98 in 10.0 mi Calm Calm - N/A   Clear
11:54 PM 39.9 °F 37.8 °F 37.0 °F 89% 29.96 in 10.0 mi East 3.5 mph - N/A   Clear